Time,TemperatureF,DewpointF,PressureIn,WindDirection,WindDirectionDegrees,WindSpeedMPH,WindSpeedGustMPH,Humidity,HourlyPrecipIn,Conditions,Clouds,dailyrainin,SoftwareType,DateUTC
2013-01-27 00:00:00,8.0,2.0,30.39,SSW,198,0.0,3.0,83,-99.99,,,-99.99,,2013-01-27 05:00:00,
2013-01-27 00:22:00,8.0,2.0,30.39,SSW,198,0.0,3.0,83,-99.99,,,-99.99,,2013-01-27 05:22:00,
2013-01-27 00:32:00,8.0,2.0,30.39,SSW,198,0.0,3.0,83,-99.99,,,-99.99,,2013-01-27 05:32:00,
2013-01-27 00:42:00,8.0,2.0,30.39,SSW,198,0.0,3.0,83,-99.99,,,-99.99,,2013-01-27 05:42:00,
2013-01-27 00:52:00,8.0,2.0,30.39,SSW,198,0.0,3.0,83,-99.99,,,-99.99,,2013-01-27 05:52:00,
2013-01-27 01:00:00,6.0,0.0,30.42,WSW,248,0.0,2.0,86,-99.99,,,-99.99,,2013-01-27 06:00:00,
2013-01-27 01:21:00,6.0,0.0,30.42,WSW,248,0.0,2.0,86,-99.99,,,-99.99,,2013-01-27 06:21:00,
2013-01-27 01:32:00,6.0,0.0,30.42,WSW,248,0.0,2.0,86,-99.99,,,-99.99,,2013-01-27 06:32:00,
2013-01-27 01:42:00,6.0,0.0,30.42,WSW,248,0.0,2.0,86,-99.99,,,-99.99,,2013-01-27 06:42:00,
2013-01-27 01:52:00,6.0,0.0,30.42,WSW,248,0.0,2.0,86,-99.99,,,-99.99,,2013-01-27 06:52:00,
2013-01-27 02:00:00,5.0,0.0,30.42,NNE,18,0.0,0.0,87,-99.99,,,-99.99,,2013-01-27 07:00:00,
2013-01-27 02:21:00,5.0,0.0,30.42,NNE,18,0.0,0.0,87,-99.99,,,-99.99,,2013-01-27 07:21:00,
2013-01-27 02:32:00,5.0,0.0,30.42,NNE,18,0.0,0.0,87,-99.99,,,-99.99,,2013-01-27 07:32:00,
2013-01-27 02:42:00,5.0,0.0,30.42,NNE,18,0.0,0.0,87,-99.99,,,-99.99,,2013-01-27 07:42:00,
2013-01-27 02:52:00,5.0,0.0,30.42,NNE,18,0.0,0.0,87,-99.99,,,-99.99,,2013-01-27 07:52:00,
2013-01-27 03:00:00,6.0,0.0,30.42,SW,235,0.0,0.0,88,-99.99,,,-99.99,,2013-01-27 08:00:00,
2013-01-27 03:22:00,6.0,0.0,30.42,SW,235,0.0,0.0,88,-99.99,,,-99.99,,2013-01-27 08:22:00,
2013-01-27 03:32:00,6.0,0.0,30.42,SW,235,0.0,0.0,88,-99.99,,,-99.99,,2013-01-27 08:32:00,
2013-01-27 03:42:00,6.0,0.0,30.42,SW,235,0.0,0.0,88,-99.99,,,-99.99,,2013-01-27 08:42:00,
2013-01-27 03:52:00,6.0,0.0,30.42,SW,235,0.0,0.0,88,-99.99,,,-99.99,,2013-01-27 08:52:00,
2013-01-27 05:00:00,6.0,1.0,30.45,SW,222,0.0,0.0,88,-99.99,,,-99.99,,2013-01-27 10:00:00,
2013-01-27 05:21:00,6.0,1.0,30.45,SW,222,0.0,0.0,88,-99.99,,,-99.99,,2013-01-27 10:21:00,
2013-01-27 05:32:00,6.0,1.0,30.45,SW,222,0.0,0.0,88,-99.99,,,-99.99,,2013-01-27 10:32:00,
2013-01-27 05:42:00,6.0,1.0,30.45,SW,222,0.0,0.0,88,-99.99,,,-99.99,,2013-01-27 10:42:00,
2013-01-27 05:52:00,6.0,1.0,30.45,SW,222,0.0,0.0,88,-99.99,,,-99.99,,2013-01-27 10:52:00,
2013-01-27 06:00:00,8.0,2.0,30.45,WNW,287,0.0,5.0,85,-99.99,,,-99.99,,2013-01-27 11:00:00,
2013-01-27 06:22:00,8.0,2.0,30.45,WNW,287,0.0,5.0,85,-99.99,,,-99.99,,2013-01-27 11:22:00,
2013-01-27 06:32:00,8.0,2.0,30.45,WNW,287,0.0,5.0,85,-99.99,,,-99.99,,2013-01-27 11:32:00,
2013-01-27 06:42:00,8.0,2.0,30.45,WNW,287,0.0,5.0,85,-99.99,,,-99.99,,2013-01-27 11:42:00,
2013-01-27 06:52:00,8.0,2.0,30.45,WNW,287,0.0,5.0,85,-99.99,,,-99.99,,2013-01-27 11:52:00,
2013-01-27 07:00:00,8.0,2.0,30.45,West,259,0.0,4.0,85,-99.99,,,-99.99,,2013-01-27 12:00:00,
2013-01-27 07:22:00,8.0,2.0,30.45,West,259,0.0,4.0,85,-99.99,,,-99.99,,2013-01-27 12:22:00,
2013-01-27 07:33:00,8.0,2.0,30.45,West,259,0.0,4.0,85,-99.99,,,-99.99,,2013-01-27 12:33:00,
2013-01-27 07:42:00,8.0,2.0,30.45,West,259,0.0,4.0,85,-99.99,,,-99.99,,2013-01-27 12:42:00,
2013-01-27 07:52:00,8.0,2.0,30.45,West,259,0.0,4.0,85,-99.99,,,-99.99,,2013-01-27 12:52:00,
2013-01-27 08:00:00,7.0,1.0,30.50,East,93,0.0,4.0,87,-99.99,,,-99.99,,2013-01-27 13:00:00,
2013-01-27 08:22:00,7.0,1.0,30.50,East,93,0.0,4.0,87,-99.99,,,-99.99,,2013-01-27 13:22:00,
2013-01-27 08:32:00,7.0,1.0,30.50,East,93,0.0,4.0,87,-99.99,,,-99.99,,2013-01-27 13:32:00,
2013-01-27 08:42:00,7.0,1.0,30.50,East,93,0.0,4.0,87,-99.99,,,-99.99,,2013-01-27 13:42:00,
2013-01-27 08:52:00,7.0,1.0,30.50,East,93,0.0,4.0,87,-99.99,,,-99.99,,2013-01-27 13:52:00,
2013-01-27 09:00:00,22.0,10.0,30.53,NNE,16,0.0,6.0,65,-99.99,,,-99.99,,2013-01-27 14:00:00,
2013-01-27 09:22:00,22.0,10.0,30.53,NNE,16,0.0,6.0,65,-99.99,,,-99.99,,2013-01-27 14:22:00,
2013-01-27 09:33:00,22.0,10.0,30.53,NNE,16,0.0,6.0,65,-99.99,,,-99.99,,2013-01-27 14:33:00,
2013-01-27 09:43:00,22.0,10.0,30.53,NNE,16,0.0,6.0,65,-99.99,,,-99.99,,2013-01-27 14:43:00,
2013-01-27 09:53:00,22.0,10.0,30.53,NNE,16,0.0,6.0,65,-99.99,,,-99.99,,2013-01-27 14:53:00,
2013-01-27 10:00:00,26.0,11.0,30.53,NNW,330,8.0,12.0,55,-99.99,,,-99.99,,2013-01-27 15:00:00,
2013-01-27 10:22:00,26.0,11.0,30.53,NNW,330,8.0,12.0,55,-99.99,,,-99.99,,2013-01-27 15:22:00,
2013-01-27 10:33:00,26.0,11.0,30.53,NNW,330,8.0,12.0,55,-99.99,,,-99.99,,2013-01-27 15:33:00,
2013-01-27 10:42:00,26.0,11.0,30.53,NNW,330,8.0,12.0,55,-99.99,,,-99.99,,2013-01-27 15:42:00,
2013-01-27 10:53:00,26.0,11.0,30.53,NNW,330,8.0,12.0,55,-99.99,,,-99.99,,2013-01-27 15:53:00,
2013-01-27 11:00:00,29.0,13.0,30.53,NW,323,10.0,16.0,51,-99.99,,,-99.99,,2013-01-27 16:00:00,
2013-01-27 11:22:00,29.0,13.0,30.53,NW,323,10.0,16.0,51,-99.99,,,-99.99,,2013-01-27 16:22:00,
2013-01-27 11:33:00,29.0,13.0,30.53,NW,323,10.0,16.0,51,-99.99,,,-99.99,,2013-01-27 16:33:00,
2013-01-27 11:42:00,29.0,13.0,30.53,NW,323,10.0,16.0,51,-99.99,,,-99.99,,2013-01-27 16:42:00,
2013-01-27 11:53:00,29.0,13.0,30.53,NW,323,10.0,16.0,51,-99.99,,,-99.99,,2013-01-27 16:53:00,
2013-01-27 12:00:00,31.0,12.0,30.50,NNW,333,5.0,17.0,45,-99.99,,,-99.99,,2013-01-27 17:00:00,
2013-01-27 12:22:00,31.0,12.0,30.50,NNW,333,5.0,17.0,45,-99.99,,,-99.99,,2013-01-27 17:22:00,
2013-01-27 12:32:00,31.0,12.0,30.50,NNW,333,5.0,17.0,45,-99.99,,,-99.99,,2013-01-27 17:32:00,
2013-01-27 12:42:00,31.0,12.0,30.50,NNW,333,5.0,17.0,45,-99.99,,,-99.99,,2013-01-27 17:42:00,
2013-01-27 12:53:00,31.0,12.0,30.50,NNW,333,5.0,17.0,45,-99.99,,,-99.99,,2013-01-27 17:53:00,
2013-01-27 13:00:00,33.0,10.0,30.47,NW,322,6.0,15.0,39,-99.99,,,-99.99,,2013-01-27 18:00:00,
2013-01-27 13:23:00,33.0,10.0,30.47,NW,322,6.0,15.0,39,-99.99,,,-99.99,,2013-01-27 18:23:00,
2013-01-27 13:32:00,33.0,10.0,30.47,NW,322,6.0,15.0,39,-99.99,,,-99.99,,2013-01-27 18:32:00,
2013-01-27 13:42:00,33.0,10.0,30.47,NW,322,6.0,15.0,39,-99.99,,,-99.99,,2013-01-27 18:42:00,
2013-01-27 13:53:00,33.0,10.0,30.47,NW,322,6.0,15.0,39,-99.99,,,-99.99,,2013-01-27 18:53:00,
2013-01-27 14:00:00,34.0,10.0,30.47,NNW,347,2.0,15.0,37,-99.99,,,-99.99,,2013-01-27 19:00:00,
2013-01-27 14:22:00,34.0,10.0,30.47,NNW,347,2.0,15.0,37,-99.99,,,-99.99,,2013-01-27 19:22:00,
2013-01-27 14:33:00,34.0,10.0,30.47,NNW,347,2.0,15.0,37,-99.99,,,-99.99,,2013-01-27 19:33:00,
2013-01-27 14:42:00,34.0,10.0,30.47,NNW,347,2.0,15.0,37,-99.99,,,-99.99,,2013-01-27 19:42:00,
2013-01-27 14:52:00,34.0,10.0,30.47,NNW,347,2.0,15.0,37,-99.99,,,-99.99,,2013-01-27 19:52:00,
2013-01-27 15:00:00,35.0,10.0,30.47,WNW,282,6.0,12.0,34,-99.99,,,-99.99,,2013-01-27 20:00:00,
2013-01-27 15:22:00,35.0,10.0,30.47,WNW,282,6.0,12.0,34,-99.99,,,-99.99,,2013-01-27 20:22:00,
2013-01-27 15:33:00,35.0,10.0,30.47,WNW,282,6.0,12.0,34,-99.99,,,-99.99,,2013-01-27 20:33:00,
2013-01-27 15:42:00,35.0,10.0,30.47,WNW,282,6.0,12.0,34,-99.99,,,-99.99,,2013-01-27 20:42:00,
2013-01-27 15:52:00,35.0,10.0,30.47,WNW,282,6.0,12.0,34,-99.99,,,-99.99,,2013-01-27 20:52:00,
2013-01-27 16:00:00,34.0,10.0,30.47,West,273,0.0,14.0,35,-99.99,,,-99.99,,2013-01-27 21:00:00,
2013-01-27 16:23:00,34.0,10.0,30.47,West,273,0.0,14.0,35,-99.99,,,-99.99,,2013-01-27 21:23:00,
2013-01-27 16:33:00,34.0,10.0,30.47,West,273,0.0,14.0,35,-99.99,,,-99.99,,2013-01-27 21:33:00,
2013-01-27 16:43:00,34.0,10.0,30.47,West,273,0.0,14.0,35,-99.99,,,-99.99,,2013-01-27 21:43:00,
2013-01-27 16:52:00,34.0,10.0,30.47,West,273,0.0,14.0,35,-99.99,,,-99.99,,2013-01-27 21:52:00,
2013-01-27 17:00:00,32.0,11.0,30.47,WNW,285,5.0,9.0,40,-99.99,,,-99.99,,2013-01-27 22:00:00,
2013-01-27 17:22:00,32.0,11.0,30.47,WNW,285,5.0,9.0,40,-99.99,,,-99.99,,2013-01-27 22:22:00,
2013-01-27 17:33:00,32.0,11.0,30.47,WNW,285,5.0,9.0,40,-99.99,,,-99.99,,2013-01-27 22:33:00,
2013-01-27 17:42:00,32.0,11.0,30.47,WNW,285,5.0,9.0,40,-99.99,,,-99.99,,2013-01-27 22:42:00,
2013-01-27 17:52:00,32.0,11.0,30.47,WNW,285,5.0,9.0,40,-99.99,,,-99.99,,2013-01-27 22:52:00,
2013-01-27 18:00:00,26.0,16.0,30.50,NNW,330,0.0,5.0,67,-99.99,,,-99.99,,2013-01-27 23:00:00,
2013-01-27 18:22:00,26.0,16.0,30.50,NNW,330,0.0,5.0,67,-99.99,,,-99.99,,2013-01-27 23:22:00,
2013-01-27 18:32:00,26.0,16.0,30.50,NNW,330,0.0,5.0,67,-99.99,,,-99.99,,2013-01-27 23:32:00,
2013-01-27 18:42:00,26.0,16.0,30.50,NNW,330,0.0,5.0,67,-99.99,,,-99.99,,2013-01-27 23:42:00,
2013-01-27 18:53:00,26.0,16.0,30.50,NNW,330,0.0,5.0,67,-99.99,,,-99.99,,2013-01-27 23:53:00,
2013-01-27 19:00:00,24.0,15.0,30.50,WSW,241,0.0,0.0,71,-99.99,,,-99.99,,2013-01-28 00:00:00,
2013-01-27 19:22:00,24.0,15.0,30.50,WSW,241,0.0,0.0,71,-99.99,,,-99.99,,2013-01-28 00:22:00,
2013-01-27 19:33:00,24.0,15.0,30.50,WSW,241,0.0,0.0,71,-99.99,,,-99.99,,2013-01-28 00:33:00,
2013-01-27 19:42:00,24.0,15.0,30.50,WSW,241,0.0,0.0,71,-99.99,,,-99.99,,2013-01-28 00:42:00,
2013-01-27 19:52:00,24.0,15.0,30.50,WSW,241,0.0,0.0,71,-99.99,,,-99.99,,2013-01-28 00:52:00,
2013-01-27 20:00:00,21.0,11.0,30.50,SW,226,0.0,0.0,69,-99.99,,,-99.99,,2013-01-28 01:00:00,
2013-01-27 20:22:00,21.0,11.0,30.50,SW,226,0.0,0.0,69,-99.99,,,-99.99,,2013-01-28 01:22:00,
2013-01-27 20:33:00,21.0,11.0,30.50,SW,226,0.0,0.0,69,-99.99,,,-99.99,,2013-01-28 01:33:00,
2013-01-27 20:43:00,21.0,11.0,30.50,SW,226,0.0,0.0,69,-99.99,,,-99.99,,2013-01-28 01:43:00,
2013-01-27 20:52:00,21.0,11.0,30.50,SW,226,0.0,0.0,69,-99.99,,,-99.99,,2013-01-28 01:52:00,
2013-01-27 21:00:00,19.0,12.0,30.50,North,354,0.0,0.0,78,-99.99,,,-99.99,,2013-01-28 02:00:00,
2013-01-27 21:22:00,19.0,12.0,30.50,North,354,0.0,0.0,78,-99.99,,,-99.99,,2013-01-28 02:22:00,
2013-01-27 21:32:00,19.0,12.0,30.50,North,354,0.0,0.0,78,-99.99,,,-99.99,,2013-01-28 02:32:00,
2013-01-27 21:42:00,19.0,12.0,30.50,North,354,0.0,0.0,78,-99.99,,,-99.99,,2013-01-28 02:42:00,
2013-01-27 21:53:00,19.0,12.0,30.50,North,354,0.0,0.0,78,-99.99,,,-99.99,,2013-01-28 02:53:00,
2013-01-27 22:00:00,17.0,10.0,30.50,SSW,205,0.0,0.0,80,-99.99,,,-99.99,,2013-01-28 03:00:00,
2013-01-27 22:22:00,17.0,10.0,30.50,SSW,205,0.0,0.0,80,-99.99,,,-99.99,,2013-01-28 03:22:00,
2013-01-27 22:32:00,17.0,10.0,30.50,SSW,205,0.0,0.0,80,-99.99,,,-99.99,,2013-01-28 03:32:00,
2013-01-27 22:42:00,17.0,10.0,30.50,SSW,205,0.0,0.0,80,-99.99,,,-99.99,,2013-01-28 03:42:00,
2013-01-27 22:53:00,17.0,10.0,30.50,SSW,205,0.0,0.0,80,-99.99,,,-99.99,,2013-01-28 03:53:00,
2013-01-27 23:00:00,16.0,10.0,30.47,SW,228,0.0,3.0,84,-99.99,,,-99.99,,2013-01-28 04:00:00,
2013-01-27 23:22:00,16.0,10.0,30.47,SW,228,0.0,3.0,84,-99.99,,,-99.99,,2013-01-28 04:22:00,
2013-01-27 23:32:00,16.0,10.0,30.47,SW,228,0.0,3.0,84,-99.99,,,-99.99,,2013-01-28 04:32:00,
2013-01-27 23:42:00,16.0,10.0,30.47,SW,228,0.0,3.0,84,-99.99,,,-99.99,,2013-01-28 04:42:00,
2013-01-27 23:52:00,16.0,10.0,30.47,SW,228,0.0,3.0,84,-99.99,,,-99.99,,2013-01-28 04:52:00,